Reflectivity
-20 -20 -20 -20 -20 -20 -20 -20 -20 -20 -20 -20 -20 -20 -20 -20 -20 -20 -20 -20 -20 -20 -20 -20 -20 -20 -20 -20 -20 -20 -20 -20 -20 -20 -20 -20 -20 -20 -20 -20 -20 -20 -20 -20 -20
-20 -20 -20 -20 -20 -20 -20 -20 -20 -20 -20 -20 -20 -20 -20 -20 -20 -20 -20 -20 -20 -20 -20 -20 -20 -20 -20 -20 -20 -20 -20 -20 -20 -20 -20 -20 -20 -20 -20 -20 -20 -20 -20 -20 -20
-20 -20 -20 -20 -20 -20 -20 -20 -20 -20 -20 -20 -20 -20 -20 -20 -20 -20 -20 -20 -20 -20 -20 -20 -20 -20 -20 -20 -20 -20 -20 -20 -20 -20 -20 -20 -20 -20 -20 -20 -20 -20 -20 -20 -20
-9 12 -18 -20 -20 -20 -20 -20 -20 -20 -20 -20 -20 -20 -20 -20 -20 -20 -20 -20 -20 -20 -20 -20 -20 -20 -20 -20 -20 -20 -20 -20 -20 -20 -20 -20 -20 -20 -20 -20 -20 -20 -20 -20 -20
-11 5 6 -20 -20 -20 -20 -20 -20 -20 -20 -20 -20 -20 -20 -20 -20 -20 -20 -20 -20 -20 -20 -20 -20 -20 -20 -20 -20 -20 -20 -20 -20 -20 -20 -20 -20 -20 -20 -20 -20 -20 -20 -20 -20
4 -6 -17 -20 -20 -20 -20 -20 -20 -20 -20 -20 -20 -11 -20 -18 -20 -20 -20 -20 -20 -20 -20 -20 -20 -20 -20 -20 -20 -20 -20 -20 -20 -20 -20 -20 -20 -20 -20 -20 -20 -20 -20 -20 -20
15 7 -15 -20 -20 -20 -20 -20 -20 -20 -20 -20 -20 -20 -20 -8 -20 -20 -18 -17 -20 -20 -20 -20 -20 -20 -20 -20 -20 -20 -20 -20 -20 -20 -20 -20 -20 -20 -20 -20 -20 -20 -20 -20 -20
12 21 25 -17 -20 -20 -20 -20 -20 -20 -16 -20 -20 -18 -20 -20 -20 -20 -20 -20 -20 -20 -20 -20 -20 -20 -20 -20 -20 -20 -20 -20 -20 -20 -20 -20 -20 -20 -20 -20 -20 -20 -20 -20 -20
14 9 9 -12 22 -18 -20 -20 -20 -20 -20 -20 -20 -16 -20 -20 -20 -20 -20 -20 -20 -20 -20 -20 -20 -20 -20 -20 -20 -20 -20 -20 -20 -20 -20 -20 -20 -20 -20 -20 -20 -20 -20 -20 -20
17 2 22 -10 10 16 -20 -20 -20 -20 -20 -11 -15 -20 -20 -20 -20 -20 -20 -20 -20 -20 -20 -20 -20 -20 -20 -20 -20 -20 -20 -20 -20 -20 -20 -20 -20 -20 -20 -20 -20 -20 -20 -20 -20
27 8 6 15 21 20 -20 -20 -20 -20 -20 -20 -20 -20 -20 -20 -20 -20 -20 -20 -20 -20 -20 -20 -20 -20 -20 -20 -20 -20 -20 -20 -20 -20 -20 -20 -20 -20 -20 -20 -20 -20 -20 -20 -20
19 13 20 28 28 13 -2 -20 -20 -20 -20 -20 -20 -20 -20 -20 -20 -20 -20 -20 -20 -20 -20 -20 -20 -20 -20 -20 -20 -20 -20 -20 -20 -20 -20 -20 -20 -20 -20 -20 -20 -20 -20 -20 -20
22 6 10 17 6 10 -20 -20 -19 11 -20 -20 -20 -20 -20 -20 -20 -20 -20 -20 -20 -20 -20 -20 -20 -20 -20 -20 -20 -20 -20 -20 -20 -20 -20 -20 -20 -20 -20 -20 -20 -20 -20 -20 -20
13 27 23 23 1 -20 -20 -20 -5 -14 -20 -20 -20 -20 -20 -20 -20 -20 -20 -20 -20 -20 -20 -20 -20 -20 -20 -20 -20 -20 -20 -20 -20 -20 -20 -20 -20 -20 -20 -20 -20 -20 -20 -20 -20
27 11 5 -17 -8 0 -9 13 5 -20 -20 -20 -20 -20 -20 -20 -20 -20 -20 -20 -20 -20 -20 -20 -20 -20 -20 -20 -20 -20 -20 -20 -20 -20 -20 -20 -20 -20 -20 -20 -20 -20 -20 -20 -20
6 19 27 12 17 7 27 20 -0 -20 -20 8 -17 -20 -20 -20 -20 -20 -20 -20 -20 -20 -20 -20 -20 -20 -20 -20 -20 -20 -20 -20 -20 -20 -20 -20 -20 -20 -20 -20 -20 -20 -20 -20 -20
20 20 22 3 -20 -5 8 -3 -14 -20 -20 -15 -20 -20 -16 -20 -20 -20 -20 -20 -20 -20 -18 -20 -20 -20 -20 -20 -20 -20 -20 -20 -20 -20 -20 -20 -20 -20 -20 -20 -20 -14 -20 -20 -20
5 12 -1 10 -2 -1 -16 -3 -19 -20 -20 -20 -18 9 0 -20 -20 -20 -20 -20 -20 -20 -20 -20 -20 -20 -20 -20 -20 -20 -20 -20 -20 -20 -20 -20 -20 -20 -20 -20 -20 -20 -20 -20 -20
5 18 6 4 15 -1 -12 -3 -18 -7 -2 -4 13 4 -19 -20 -20 -20 -20 -20 -20 -20 -20 -20 -20 -20 -20 -20 -20 -20 -20 -20 -20 -20 -20 -20 -20 -20 -20 -20 -20 -20 -20 -20 -18
16 15 12 24 14 -12 -2 -6 -6 14 15 3 10 4 -20 -20 -20 -20 -20 -20 -20 -20 -20 -20 -20 -20 -20 -20 -20 -20 -20 -20 -7 2 -15 -20 -20 -20 -20 -20 -20 -20 -5 12 8
11 20 19 19 14 19 6 6 10 10 2 4 -18 -14 -11 -20 -20 -20 -20 -20 -20 -20 -20 -20 -20 -20 -20 -20 -20 -20 -20 -20 -13 4 18 -10 -20 -20 -4 -11 -9 -11 -11 26 28
11 6 14 2 9 12 0 4 5 -1 -7 -7 -20 -19 -20 -20 -20 -20 -20 -20 -20 -20 -20 -20 -20 -20 -20 -20 -20 -20 -20 -13 -11 -20 5 -3 -13 14 1 -20 -12 13 35 17 13
-13 10 3 -8 -2 -4 6 1 1 -11 -8 -18 -20 -20 -20 -20 -20 -20 -20 -20 -20 -20 -20 -20 -20 -20 -20 -20 -20 -20 -20 -20 -5 15 -20 15 25 -6 -13 -14 6 33 23 -19 2
-18 -18 -17 -19 -10 -19 -16 -18 -14 -4 -11 -20 -20 -20 -20 -20 -20 -20 -20 -20 -20 -20 -20 -20 -20 -20 -20 -20 -20 -20 -20 -20 -20 -8 -20 -20 -20 6 22 29 4 26 5 -10 -16
-20 -10 -20 -20 -20 -20 -20 -20 -20 -20 -20 -20 -20 -20 -20 -20 -20 -20 -20 -20 -20 -20 -20 -20 -20 -20 -20 -20 -20 -20 -20 -20 -20 -20 -19 -20 -20 -20 32 20 8 13 10 -15 -20
-5 -20 -16 -15 -20 -20 -20 -20 -20 -20 -20 -20 -20 -20 -20 -20 -20 -20 -20 -20 -20 -20 -20 -20 -20 -15 -20 -20 -20 -20 -20 -20 -20 -20 -20 -20 -2 2 27 37 -7 11 -2 3 -20
-11 -20 -20 -20 -20 -20 -20 -20 -20 -20 -20 -20 -20 -20 -20 -20 -20 -20 -20 -20 -20 -20 -20 -20 -20 -20 -20 -20 -20 -20 3 -12 -20 1 -3 11 -2 -12 18 17 5 -15 -10 -20 -20
Wind_Speed
12 12 11 11 10 11 9 10 9 10 11 13 14 17 18 18 19 3 6 10 6 8 3 1 0 1 4 1 3 5 0 3 6 5 7 3 4 1 4 4 7 6 3 7 7
15 13 13 11 10 10 10 10 11 12 12 14 14 16 18 18 5 8 10 8 13 5 2 2 1 2 0 3 3 5 4 9 6 4 6 15 4 14 3 7 8 8 9 10 6
17 15 14 12 11 11 11 10 11 14 14 14 15 15 16 13 6 6 2 13 12 9 4 1 2 1 2 3 4 5 7 5 5 6 4 6 14 7 4 11 11 9 7 6 5
16 15 14 13 12 11 10 8 12 15 15 14 15 16 16 4 8 1 2 5 10 6 4 3 3 3 4 6 5 5 6 5 5 6 7 9 12 13 10 11 11 12 9 4 8
17 14 13 13 13 10 8 9 12 12 13 14 14 13 6 2 13 4 3 6 6 6 6 5 5 5 4 4 2 6 8 9 9 11 10 13 13 14 17 13 11 10 9 10 9
17 14 11 12 13 11 9 9 11 12 11 13 12 9 1 9 4 5 6 5 4 4 4 6 6 5 5 4 5 5 5 8 6 9 7 9 10 3 5 11 9 8 10 11 10
16 14 12 12 13 11 10 10 11 13 12 9 9 4 6 20 4 5 2 4 5 4 5 5 4 2 2 6 4 6 7 5 5 6 8 8 7 9 9 9 10 8 10 11 11
19 15 13 11 10 9 10 11 13 12 13 10 3 3 10 7 5 10 3 7 8 9 9 4 6 4 4 5 8 4 2 4 3 2 6 4 14 6 9 4 10 11 10 10 12
20 16 12 11 9 7 10 12 15 15 10 5 1 3 12 11 5 10 10 7 4 4 6 7 4 5 2 2 4 2 6 5 6 4 6 6 14 4 7 8 9 10 11 11 12
20 17 13 11 9 6 8 13 12 4 2 6 3 2 7 2 3 4 8 7 5 3 1 4 3 2 2 4 7 5 4 4 4 5 2 10 22 10 9 9 11 10 11 13 15
21 19 15 11 8 3 3 3 1 1 5 11 11 6 4 6 4 4 2 4 2 4 3 1 3 9 9 8 4 3 5 10 7 11 4 13 22 17 12 6 9 11 12 14 15
22 19 16 12 8 2 4 3 5 2 7 17 14 14 11 4 6 7 8 6 4 7 3 2 8 9 7 5 6 7 8 11 8 12 5 11 22 18 9 8 10 13 12 14 15
22 20 16 10 4 1 4 6 2 4 3 7 9 11 10 10 8 8 10 6 5 6 6 7 7 2 5 6 6 8 6 8 11 9 6 7 20 10 6 8 12 12 11 7 8
22 18 13 8 3 3 4 7 3 4 2 7 7 9 8 7 5 9 8 8 4 9 7 6 8 8 7 7 7 11 8 14 14 6 8 8 13 24 10 5 9 14 9 8 9
20 17 13 7 2 3 1 4 4 4 3 3 5 5 9 10 2 4 5 3 7 6 6 7 4 4 5 6 6 8 9 10 11 4 4 9 3 16 14 17 8 9 8 7 10
20 15 13 4 2 4 4 4 4 4 9 6 5 6 6 4 2 2 4 2 2 2 2 6 2 3 6 4 6 8 4 4 3 2 4 19 7 16 10 5 4 8 10 11 12
18 15 8 5 4 2 3 4 3 6 3 5 5 8 6 4 2 4 3 4 0 1 2 4 4 2 4 4 5 7 3 3 4 1 9 5 2 8 5 3 1 7 9 11 13
16 10 3 3 1 1 3 2 8 8 2 1 4 6 4 2 2 2 5 3 7 3 2 2 4 4 7 5 4 6 4 4 4 3 5 3 7 5 4 4 7 5 8 13 16
14 2 2 4 4 2 2 4 3 2 2 2 3 4 2 3 5 3 3 4 2 3 2 2 3 3 7 1 0 5 2 2 5 1 3 5 5 1 3 4 2 5 10 13 15
4 3 1 2 7 2 2 5 3 4 2 1 3 3 4 1 3 3 3 4 3 5 2 1 4 2 7 7 5 5 5 4 2 4 6 5 6 6 4 6 5 7 11 14 15
4 4 3 7 3 1 3 3 2 1 2 4 2 3 3 3 3 2 3 2 2 2 5 1 1 1 4 1 4 5 2 3 2 4 4 5 5 2 6 8 7 9 13 12 13
4 4 3 4 4 2 3 5 5 3 5 3 3 4 3 3 3 2 3 2 2 2 3 1 2 3 4 9 7 5 3 2 3 3 3 4 5 4 7 9 10 12 12 11 14
5 4 1 3 4 3 3 3 4 3 4 2 2 3 3 3 4 3 3 3 3 2 3 3 1 4 5 4 5 4 3 2 3 6 6 5 3 6 6 6 6 9 10 11 13
3 4 1 2 2 4 5 2 4 4 4 4 4 5 4 3 3 3 2 4 2 2 5 4 3 5 6 3 2 5 10 11 6 3 4 7 13 5 3 5 9 11 10 12 13
1 2 4 5 3 4 3 3 5 3 3 7 5 6 4 2 2 2 2 4 4 4 3 4 4 4 6 7 7 14 18 18 12 14 8 12 10 0 5 5 10 10 12 14 15
4 4 2 3 3 7 4 1 6 3 3 3 5 4 5 2 1 2 2 3 5 4 4 2 3 4 6 9 13 16 21 19 15 15 15 18 14 5 7 6 12 13 12 13 14
1 2 4 3 3 5 1 4 4 4 4 4 3 3 2 1 3 6 7 6 7 6 6 7 4 2 7 5 10 15 11 19 8 4 12 10 5 7 8 8 12 11 10 11 13
Wind_Direction
240 253 259 272 277 292 301 309 312 318 324 327 330 326 324 323 317 305 248 221 188 250 324 356 321 197 104 204 205 146 267 207 217 193 259 317 360 348 336 297 329 300 280 285 11
238 240 255 261 277 286 298 306 312 318 324 326 327 326 322 324 296 250 248 222 226 277 135 162 196 133 264 207 217 164 177 219 209 218 267 297 301 299 284 304 294 303 320 339 65
232 236 243 255 263 278 291 307 313 316 322 327 325 326 323 326 297 249 196 215 215 217 225 142 141 179 213 178 223 203 226 219 242 268 267 275 293 264 256 278 254 263 270 283 316
229 231 237 247 256 270 285 302 312 317 323 327 326 328 323 305 288 239 109 141 189 168 158 145 143 181 208 209 228 259 239 240 264 252 274 260 272 281 260 257 260 263 248 263 247
222 224 233 243 251 262 281 301 308 311 320 324 326 330 345 287 250 265 156 125 124 155 177 179 156 190 212 210 243 216 252 255 247 260 262 269 259 256 280 274 257 264 278 252 239
219 215 218 243 258 266 277 293 299 303 313 320 320 325 312 265 253 280 215 155 173 189 199 187 197 192 269 253 189 248 244 276 264 255 254 258 260 219 269 277 259 261 263 263 238
208 211 208 228 251 263 278 286 288 300 306 305 307 277 256 246 303 342 281 220 175 203 207 202 196 185 352 307 265 260 294 291 242 225 236 258 260 233 250 275 298 261 262 261 246
199 204 206 213 234 260 275 285 292 292 293 295 257 199 257 256 268 271 198 276 239 226 230 234 174 202 185 263 339 337 292 302 294 21 281 230 273 298 275 339 303 299 300 288 283
190 199 200 203 217 238 279 293 287 285 271 260 251 203 260 301 239 250 174 209 215 212 227 246 171 205 238 146 358 321 259 256 299 271 258 231 294 245 313 304 277 286 291 288 290
181 187 195 200 218 248 290 290 283 297 207 149 239 260 260 253 279 268 174 193 212 192 51 129 77 204 55 118 233 237 262 253 239 291 298 288 284 269 259 263 275 283 285 287 286
176 186 190 201 222 233 17 353 354 302 254 202 189 220 280 299 282 286 212 145 175 92 168 218 139 217 221 213 205 242 268 270 273 264 287 282 281 288 289 247 263 265 265 272 269
173 180 185 193 213 183 115 219 234 146 290 229 237 239 270 339 305 273 143 168 159 213 151 36 238 230 227 208 215 238 257 274 272 255 213 263 274 282 276 257 252 274 275 268 272
172 167 164 196 173 171 202 227 195 103 270 276 208 228 229 169 216 260 153 156 172 182 197 182 238 210 206 245 241 244 222 257 259 291 252 285 279 282 282 276 284 284 272 305 345
157 159 150 150 101 151 213 233 150 105 336 256 213 242 174 186 236 218 201 154 196 197 197 224 252 235 257 247 223 262 236 253 267 270 261 179 287 296 293 307 314 321 345 16 358
149 150 149 158 92 172 73 120 135 55 259 168 157 161 142 160 198 224 187 159 194 194 125 236 246 220 214 218 216 254 229 259 266 243 316 253 146 278 320 312 329 346 18 13 347
140 145 142 134 116 243 347 73 52 87 238 196 145 166 134 216 280 106 147 71 157 189 185 230 272 235 218 254 219 263 267 244 34 87 269 286 168 279 296 330 7 359 11 2 351
141 146 137 131 189 95 147 88 152 210 173 149 171 164 174 142 160 147 137 29 145 11 15 327 263 64 14 36 359 14 65 325 315 341 249 34 316 246 7 25 82 8 351 353 1
120 122 133 221 58 49 105 130 216 174 51 59 98 98 123 35 49 51 102 125 19 53 144 134 305 13 339 58 341 297 176 183 263 213 260 17 254 254 106 66 65 58 19 1 4
110 80 102 253 177 81 118 208 236 20 24 72 74 128 94 31 99 78 70 98 83 11 139 37 245 286 102 177 135 302 345 248 273 300 287 234 280 147 142 32 47 27 51 18 356
104 115 188 233 135 109 205 254 211 19 344 43 121 3 121 68 79 75 91 348 112 25 16 104 293 335 348 358 7 81 282 351 13 265 238 260 244 235 8 341 320 27 33 18 355
85 116 177 143 99 120 206 257 94 16 117 62 92 90 93 118 92 75 76 330 63 68 67 52 154 301 45 77 299 341 313 293 179 256 280 279 260 3 44 1 335 31 31 16 357
129 108 178 113 153 207 208 180 152 75 60 79 72 81 98 93 98 105 116 86 66 153 128 229 158 288 250 262 270 219 58 346 144 275 270 269 267 83 84 56 41 22 8 10 6
124 120 32 124 175 211 229 85 55 76 36 77 89 65 73 109 106 93 82 115 39 85 146 168 26 330 320 25 21 53 327 332 261 252 233 271 264 43 29 46 36 43 2 12 6
118 106 99 153 243 168 138 116 118 37 53 81 63 67 80 90 50 141 114 80 37 128 126 106 174 194 243 297 323 291 291 284 244 235 278 256 296 317 11 40 47 34 11 15 12
183 173 171 189 236 145 122 107 105 105 68 33 46 69 70 88 54 89 42 358 334 191 77 122 203 217 257 279 274 275 273 272 250 241 233 264 277 73 24 16 49 37 20 11 12
123 136 48 103 94 95 23 40 116 91 97 60 95 113 75 115 167 234 163 187 229 187 141 125 241 186 250 258 257 264 262 259 252 254 242 252 265 99 56 354 46 34 28 14 7
322 282 100 356 79 80 225 140 115 94 34 87 116 90 33 267 202 221 217 206 218 193 192 168 162 107 267 237 297 276 273 258 204 235 242 224 115 126 72 29 33 24 28 23 13